Weather History for Cozumel, Mexico

Change the Weather History Date:

Friday, October 22, 2010

  Actual Average Record
Temperature  
Mean Temperature 76 °F -  
Max Temperature 82 °F 86 °F 91 °F (2006)
Min Temperature 71 °F 75 °F 68 °F (2013)
Cooling Degree Days 12    
Growing Degree Days 26 (Base 50)    
Moisture  
Dew Point 67 °F    
Average Humidity 75    
Maximum Humidity 94    
Minimum Humidity 58    
Precipitation  
Precipitation 0.00 in - - ()
Sea Level Pressure  
Sea Level Pressure 29.96 in    
Wind  
Wind Speed 7 mph ()    
Max Wind Speed 16 mph    
Max Gust Speed -    
Visibility 7.9 miles    
Events      
Averages and records for this station are not official NWS values.
T = Trace of Precipitation, MM = Missing Value Source: Averaged Metar Reports

Daily Weather History Graph

Daily Weather History Graph

Search for Another Location

Airport:

Trip Planner

Search our weather history database for the weather conditions in past years. The results will help you decide how hot, cold, wet, or windy it might be!

Date:

Astronomy

Oct. 22, 2010 Rise Set
Actual Time 6:45 AM CDT 6:18 PM CDT
Civil Twilight 6:22 AM CDT 6:41 PM CDT
Nautical Twilight 5:57 AM CDT 7:06 PM CDT
Astronomical Twilight 5:31 AM CDT 7:32 PM CDT
Moon 5:57 PM CDT (10/22) 6:18 AM CDT (10/22)
Length of Visible Light 12h 18m
Length of Day
11h 33m
Full, 100% of the Moon is Illuminated
Oct 22
Full
Oct 22
Full
Oct 30
Last Quarter
Nov 5
New
Nov 13
First Quarter

Hourly Weather History & Observations

Time (CDT) Temp. Heat Index Dew Point Humidity Pressure Visibility Wind Dir Wind Speed Gust Speed Precip Events Conditions
12:42 AM 73.4 °F - 64.4 °F 73% 29.93 in 7.0 mi NE 5.8 mph - N/A   Clear
1:40 AM 73.4 °F - 64.4 °F 73% 29.94 in 7.0 mi NE 5.8 mph - N/A   Partly Cloudy
2:40 AM 71.6 °F - 64.4 °F 78% 29.93 in 7.0 mi NNE 3.5 mph - N/A   Partly Cloudy
3:41 AM 71.6 °F - 68.0 °F 88% 29.94 in 7.0 mi North 6.9 mph - N/A   Partly Cloudy
4:57 AM 71.6 °F - 69.8 °F 94% 29.93 in 8.0 mi North 4.6 mph - N/A   Partly Cloudy
5:40 AM 71.6 °F - 69.8 °F 94% 29.94 in 7.0 mi North 4.6 mph - N/A   Clear
6:41 AM 71.6 °F - 69.8 °F 94% 29.94 in 7.0 mi North 5.8 mph - N/A   Scattered Clouds
7:46 AM 73.4 °F - 69.8 °F 88% 29.97 in 8.0 mi NNE 3.5 mph - N/A   Partly Cloudy
8:42 AM 77.0 °F - 69.8 °F 78% 29.99 in 8.0 mi NNE 5.8 mph - N/A   Partly Cloudy
9:47 AM 78.8 °F - 66.2 °F 65% 30.03 in 8.0 mi NNE 16.1 mph - N/A   Partly Cloudy
10:41 AM 80.6 °F 82.7 °F 66.2 °F 61% 30.01 in 10.0 mi NE 13.8 mph - N/A   Partly Cloudy
11:45 AM 82.4 °F 84.6 °F 66.2 °F 58% 30.00 in 10.0 mi NE 13.8 mph - N/A   Partly Cloudy
12:43 PM 80.6 °F 83.2 °F 68.0 °F 65% 29.94 in 10.0 mi NNE 13.8 mph - N/A   Partly Cloudy
1:41 PM 80.6 °F 82.7 °F 66.2 °F 61% 29.94 in 10.0 mi NE 15.0 mph - N/A   Partly Cloudy
2:41 PM 80.6 °F 82.7 °F 66.2 °F 61% 29.92 in 9.0 mi NE 13.8 mph - N/A   Partly Cloudy
3:40 PM 80.6 °F 83.2 °F 68.0 °F 65% 29.95 in 9.0 mi NE 9.2 mph - N/A   Partly Cloudy
4:42 PM 80.6 °F 82.7 °F 66.2 °F 61% 29.92 in 8.0 mi NE 13.8 mph - N/A   Partly Cloudy
5:43 PM 77.0 °F - 66.2 °F 69% 29.93 in 8.0 mi ENE 8.1 mph - N/A   Partly Cloudy
6:42 PM 75.2 °F - 66.2 °F 73% 29.91 in 7.0 mi ENE 5.8 mph - N/A   Partly Cloudy
7:47 PM 73.4 °F - 66.2 °F 78% 29.95 in 7.0 mi ENE 5.8 mph - N/A   Clear
8:50 PM 73.4 °F - 66.2 °F 78% 29.97 in 7.0 mi NE 5.8 mph - N/A   Clear
9:40 PM 73.4 °F - 68.0 °F 83% 30.01 in 7.0 mi NE 6.9 mph - N/A   Clear
10:42 PM 73.4 °F - 68.0 °F 83% 29.98 in 7.0 mi NE 5.8 mph - N/A   Clear
11:48 PM 73.4 °F - 68.0 °F 83% 29.97 in 7.0 mi NE 4.6 mph - N/A   Clear